PDT,Max TemperatureF,Mean TemperatureF,Min TemperatureF,Max Dew PointF,MeanDew PointF,Min DewpointF,Max Humidity, Mean Humidity, Min Humidity, Max Sea Level PressureIn, Mean Sea Level PressureIn, Min Sea Level PressureIn, Max VisibilityMiles, Mean VisibilityMiles, Min VisibilityMiles, Max Wind SpeedMPH, Mean Wind SpeedMPH, Max Gust SpeedMPH,PrecipitationIn, CloudCover, Events, WindDirDegrees
2014-3-1,60,56,51,57,53,49,100,93,86,29.87,29.69,29.56,10,8,2,31,11,37,0.72,8,Rain,145
2014-3-2,57,52,47,56,53,47,100,97,93,30.17,30.05,29.89,10,9,2,18,7,22,0.05,6,Rain,184
2014-3-3,64,55,45,52,48,45,100,78,56,30.19,30.14,30.06,10,6,0,9,3,13,0.00,5,Fog,243
2014-3-4,66,59,52,54,51,48,93,78,63,30.11,30.07,30.02,10,10,10,8,1,10,0.00,4,,235
2014-3-5,73,62,50,55,52,50,100,75,49,30.12,30.09,30.03,10,5,0,13,4,16,0.00,3,Fog,35
2014-3-6,73,63,52,55,49,27,93,55,17,30.14,30.10,30.04,10,10,10,24,11,29,0.00,3,,326
2014-3-7,71,57,43,48,44,40,100,67,33,30.15,30.11,30.04,10,8,0,16,5,20,0.00,1,Fog,63
2014-3-8,77,59,40,48,43,30,96,58,19,30.19,30.14,30.10,10,10,10,13,4,17,0.00,0,,124
2014-3-9,76,61,46,47,41,29,86,52,18,30.20,30.15,30.09,10,10,10,15,3,19,0.00,0,,179
2014-3-10,74,58,41,50,43,38,89,62,35,30.17,30.11,30.05,10,10,10,17,5,21,0.00,0,,328
2014-3-11,69,54,39,45,38,34,96,63,30,30.12,30.04,29.97,10,10,10,17,8,23,0.00,0,,91
2014-3-12,74,57,39,40,33,25,85,51,17,30.06,29.99,29.94,10,10,10,24,8,30,0.00,2,,62
2014-3-13,78,58,39,36,32,26,77,43,15,30.06,29.99,29.93,10,10,10,13,3,,0.00,0,,345
2014-3-14,77,57,36,47,36,29,85,52,19,30.20,30.12,30.07,10,10,10,15,5,18,0.00,0,,340
2014-3-15,82,61,40,46,43,37,92,59,26,30.29,30.24,30.19,10,10,10,14,4,17,0.00,0,,56
2014-3-16,86,63,40,47,40,35,89,53,17,30.32,30.23,30.11,10,10,10,18,4,26,0.00,0,,325
2014-3-17,73,57,40,46,44,38,92,65,38,30.14,30.02,29.88,10,10,10,24,10,28,0.00,0,,321
2014-3-18,73,56,38,45,36,31,93,57,20,29.97,29.91,29.85,10,10,10,14,4,16,0.00,0,,83
2014-3-19,79,59,38,40,33,23,79,47,14,30.07,30.02,29.98,10,10,10,15,3,19,0.00,0,,189
2014-3-20,80,59,37,41,35,27,85,50,15,30.07,29.99,29.89,10,10,10,15,3,17,0.00,0,,226
2014-3-21,68,55,42,46,43,39,89,67,45,30.00,29.95,29.92,10,10,10,23,8,27,0.00,0,,207
2014-3-22,74,57,40,47,43,36,92,59,25,30.12,30.06,30.00,10,9,2,20,4,24,0.00,4,,243
2014-3-23,78,61,44,46,44,37,100,64,28,30.17,30.12,30.01,10,6,0,16,5,19,0.00,4,Fog,321
2014-3-24,83,61,39,48,39,33,93,58,22,30.13,30.06,29.96,10,10,10,13,4,17,0.00,0,,331
2014-3-25,74,57,40,49,42,34,83,56,29,30.02,29.94,29.87,10,10,10,21,6,26,T,4,Rain,194
2014-3-26,61,53,45,53,47,44,93,74,55,30.01,29.91,29.87,10,10,5,21,9,26,0.05,4,Rain,218
2014-3-27,68,54,39,47,41,34,96,63,29,30.13,30.05,30.01,10,10,10,16,6,20,0.00,2,,300
2014-3-28,74,58,41,47,42,36,89,57,25,30.22,30.15,30.08,10,10,10,12,4,14,0.00,0,,250
2014-3-29,72,58,43,53,47,40,96,68,40,30.16,30.06,29.98,10,9,5,18,6,23,0.35,3,Rain,273
2014-3-30,65,56,47,48,45,37,93,65,37,30.13,30.08,30.03,10,10,10,15,6,23,0.02,3,Rain,312
2014-3-31,61,52,42,48,43,40,96,72,47,30.07,29.97,29.88,10,9,3,24,7,31,0.27,5,Rain,218